Date String (YYYY-MM-DD hh:mm:ss) UTC,Instrument flags,absolute air pressure of the measurement (hPa),sample flow rate (lpm),inlet stack bypass flow (lpm),air temperature of the measurement (°C),ambient temperature measured by the external sensor (°C),aerosol sample conditioner tube jacket temperature (°C),OPC LED temperature (°C),internal box temperature (°C),relative humidity of the measurement (%),span deviation,mass concentration of particles derived from Lorenz-Mie calculation of OPC scattering (μg/m³),mass concentration of particles derived from Lorenz-Mie calculation of OPC scattering (μg/m³),mass concentration of particles derived from Lorenz-Mie calculation of OPC scattering (μg/m³)
DateTimeUTC,F1_M11,P_M11,Q1_M11,Q2_M11,T1_M11,T2_M11,T3_M11,T4_M11,T5_M11,U1_M11,ZSPAN_M11,X2_M11,X0_M11,X1_M11
2024-06-16 21:00:00,SystemResetWarning,0823.5,5.01,000.00,028.7,025.4,000.0,037.5,029.5,026.1,0000.0,0007.04,0024.55,0005.06
2024-06-16 21:01:00,SystemResetWarning,0823.5,5.01,000.00,028.6,026.0,000.0,037.4,029.7,026.4,0000.0,0007.01,0024.57,0005.05
2024-06-16 21:02:00,SystemResetWarning,0823.5,4.99,000.00,028.6,026.4,000.0,037.3,030.0,026.1,0000.0,0007.01,0024.86,0005.04
2024-06-16 21:03:00,SystemResetWarning,0823.5,5.00,000.00,028.7,026.9,000.0,037.3,030.2,026.3,0000.0,0007.00,0026.87,0005.03
2024-06-16 21:04:00,SystemResetWarning,0823.5,5.00,000.00,028.7,027.4,000.0,037.2,030.4,025.8,0000.0,0007.06,0027.56,0005.05
2024-06-16 21:05:00,SystemResetWarning,0823.5,5.01,000.00,028.8,027.7,000.0,037.2,030.6,026.2,0000.0,0007.05,0027.23,0005.04
2024-06-16 21:06:00,SystemResetWarning,0823.4,5.00,000.00,028.9,028.0,000.0,037.2,030.7,025.9,0000.0,0007.03,0027.09,0005.03
2024-06-16 21:07:00,SystemResetWarning,0823.4,4.99,000.00,029.0,028.3,000.0,037.2,030.8,025.9,0000.0,0007.01,0027.01,0005.03
2024-06-16 21:08:00,SystemResetWarning,0823.4,4.99,000.00,029.1,028.5,000.0,037.3,031.0,025.9,0000.0,0006.95,0025.37,0005.03
2024-06-16 21:09:00,SystemResetWarning,0823.4,5.00,000.00,029.2,028.7,000.0,037.3,031.1,025.9,0000.0,0007.01,0025.88,0005.03
2024-06-16 21:10:00,SystemResetWarning,0823.4,5.00,000.00,029.3,028.9,000.0,037.3,031.2,026.2,0000.0,0007.01,0025.80,0005.03
2024-06-16 21:11:00,SystemResetWarning,0823.4,5.00,000.00,029.4,029.0,000.0,037.4,031.3,025.6,0000.0,0007.07,0028.39,0005.02
2024-06-16 21:12:00,SystemResetWarning,0823.4,4.99,000.00,029.4,028.8,000.0,037.4,031.2,025.2,0000.0,0007.07,0027.66,0005.03
2024-06-16 21:13:00,SystemResetWarning,0823.3,5.00,000.00,029.2,026.7,000.0,037.5,030.1,025.4,0000.0,0007.15,0028.09,0005.03
2024-06-16 21:14:00,SystemResetWarning,0823.3,5.00,000.00,028.8,025.4,000.0,037.5,029.5,026.2,0000.0,0007.19,0026.90,0005.04
2024-06-16 21:15:00,SystemResetWarning,0823.3,5.01,000.00,028.7,025.8,000.0,037.4,029.6,026.2,0000.0,0007.10,0027.89,0005.02
2024-06-16 21:16:00,SystemResetWarning,0823.3,4.99,000.00,028.6,026.3,000.0,037.3,029.9,026.5,0000.0,0007.11,0028.49,0005.02
2024-06-16 21:17:00,SystemResetWarning,0823.3,4.99,000.00,028.7,026.8,000.0,037.3,030.1,027.3,0000.0,0007.10,0028.45,0005.03
2024-06-16 21:18:00,SystemResetWarning,0823.4,5.00,000.00,028.7,027.2,000.0,037.2,030.3,026.7,0000.0,0007.02,0028.15,0005.02
2024-06-16 21:19:00,SystemResetWarning,0823.3,5.01,000.00,028.8,027.6,000.0,037.2,030.5,026.2,0000.0,0007.02,0028.06,0005.01
2024-06-16 21:20:00,SystemResetWarning,0823.3,5.00,000.00,028.9,027.9,000.0,037.2,030.7,026.2,0000.0,0007.00,0028.78,0005.02
2024-06-16 21:21:00,SystemResetWarning,0823.3,5.00,000.00,029.0,028.2,000.0,037.2,030.8,026.0,0000.0,0007.00,0028.87,0005.03
2024-06-16 21:22:00,SystemResetWarning,0823.3,4.99,000.00,029.1,028.5,000.0,037.3,030.9,025.7,0000.0,0006.98,0028.39,0005.05
2024-06-16 21:23:00,SystemResetWarning,0823.3,5.00,000.00,029.2,028.7,000.0,037.3,031.0,025.8,0000.0,0006.97,0027.75,0005.05
2024-06-16 21:24:00,SystemResetWarning,0823.3,5.00,000.00,029.2,028.8,000.0,037.3,031.1,026.1,0000.0,0006.94,0026.35,0005.04
2024-06-16 21:25:00,SystemResetWarning,0823.3,5.00,000.00,029.3,029.0,000.0,037.4,031.3,026.0,0000.0,0006.87,0025.37,0005.03
2024-06-16 21:26:00,SystemResetWarning,0823.3,4.99,000.00,029.4,028.6,000.0,037.4,031.1,025.5,0000.0,0006.90,0024.89,0005.04
2024-06-16 21:27:00,SystemResetWarning,0823.1,4.99,000.00,029.1,026.3,000.0,037.5,029.9,025.7,0000.0,0006.90,0024.03,0005.04
2024-06-16 21:28:00,SystemResetWarning,0823.1,5.03,000.00,028.7,025.3,000.0,037.5,029.4,026.4,0000.0,0006.95,0023.98,0005.05
2024-06-16 21:29:00,SystemResetWarning,0823.1,4.99,000.00,028.6,025.9,000.0,037.4,029.6,027.0,0000.0,0006.95,0023.60,0005.06
2024-06-16 21:30:00,SystemResetWarning,0823.2,5.01,000.00,028.6,026.4,000.0,037.3,029.9,027.3,0000.0,0006.97,0023.63,0005.07
2024-06-16 21:31:00,SystemResetWarning,0823.1,5.01,000.00,028.7,026.9,000.0,037.2,030.1,026.9,0000.0,0006.95,0022.31,0005.08
2024-06-16 21:32:00,SystemResetWarning,0823.2,5.00,000.00,028.7,027.3,000.0,037.2,030.4,027.0,0000.0,0006.93,0021.61,0005.08
2024-06-16 21:33:00,SystemResetWarning,0823.2,5.00,000.00,028.8,027.7,000.0,037.2,030.5,026.4,0000.0,0006.91,0019.81,0005.08
2024-06-16 21:34:00,SystemResetWarning,0823.2,5.00,000.00,028.9,028.0,000.0,037.2,030.7,026.2,0000.0,0006.88,0019.71,0005.09
2024-06-16 21:35:00,SystemResetWarning,0823.2,4.99,000.00,029.0,028.3,000.0,037.2,030.8,026.7,0000.0,0006.81,0019.98,0005.10
2024-06-16 21:36:00,SystemResetWarning,0823.1,5.00,000.00,029.1,028.5,000.0,037.2,031.0,026.0,0000.0,0006.81,0020.57,0005.11
2024-06-16 21:37:00,SystemResetWarning,0823.1,4.99,000.00,029.2,028.7,000.0,037.3,031.1,026.1,0000.0,0006.79,0019.12,0005.10
2024-06-16 21:38:00,SystemResetWarning,0823.2,5.00,000.00,029.3,028.9,000.0,037.3,031.2,026.1,0000.0,0006.77,0019.32,0005.10
2024-06-16 21:39:00,SystemResetWarning,0823.0,5.00,000.00,029.4,028.9,000.0,037.4,031.2,025.5,0000.0,0006.74,0020.11,0005.10
2024-06-16 21:40:00,SystemResetWarning,0823.0,4.99,000.00,029.2,027.1,000.0,037.4,030.3,025.9,0000.0,0006.83,0020.79,0005.12
2024-06-16 21:41:00,SystemResetWarning,0822.9,5.01,000.00,028.8,025.2,000.0,037.4,029.5,026.7,0000.0,0006.84,0021.91,0005.14
2024-06-16 21:42:00,SystemResetWarning,0823.0,5.02,000.00,028.6,025.6,000.0,037.4,029.5,026.7,0000.0,0006.86,0022.00,0005.13
2024-06-16 21:43:00,SystemResetWarning,0823.0,4.99,000.00,028.6,026.1,000.0,037.3,029.8,026.9,0000.0,0006.86,0022.66,0005.12
2024-06-16 21:44:00,SystemResetWarning,0823.0,4.99,000.00,028.6,026.6,000.0,037.2,030.1,026.6,0000.0,0006.91,0024.23,0005.14
2024-06-16 21:45:00,SystemResetWarning,0823.0,5.00,000.00,028.7,027.1,000.0,037.2,030.3,026.5,0000.0,0006.94,0024.83,0005.14
2024-06-16 21:46:00,SystemResetWarning,0823.0,5.01,000.00,028.7,027.5,000.0,037.2,030.5,026.3,0000.0,0006.97,0024.59,0005.15
2024-06-16 21:47:00,SystemResetWarning,0823.0,5.00,000.00,028.8,027.9,000.0,037.2,030.6,026.4,0000.0,0007.01,0024.11,0005.17
2024-06-16 21:48:00,SystemResetWarning,0823.1,5.00,000.00,028.9,028.2,000.0,037.2,030.8,026.6,0000.0,0007.12,0025.27,0005.19
2024-06-16 21:49:00,SystemResetWarning,0823.0,5.00,000.00,029.0,028.4,000.0,037.2,030.9,026.3,0000.0,0007.13,0025.06,0005.19
2024-06-16 21:50:00,SystemResetWarning,0823.1,4.99,000.00,029.1,028.6,000.0,037.2,031.0,026.1,0000.0,0007.13,0024.70,0005.20
2024-06-16 21:51:00,SystemResetWarning,0823.0,5.00,000.00,029.2,028.8,000.0,037.3,031.1,025.9,0000.0,0007.11,0024.93,0005.19
2024-06-16 21:52:00,SystemResetWarning,0823.0,5.00,000.00,029.3,029.0,000.0,037.3,031.2,026.0,0000.0,0007.11,0023.81,0005.18
2024-06-16 21:53:00,SystemResetWarning,0822.9,4.98,000.00,029.3,028.0,000.0,037.4,030.7,025.7,0000.0,0007.12,0024.07,0005.19
2024-06-16 21:54:00,SystemResetWarning,0822.8,5.01,000.00,028.9,025.9,000.0,037.4,029.7,026.1,0000.0,0007.16,0023.92,0005.20
2024-06-16 21:55:00,SystemResetWarning,0822.8,5.02,000.00,028.6,025.5,000.0,037.4,029.5,026.6,0000.0,0007.13,0022.42,0005.20
2024-06-16 21:56:00,SystemResetWarning,0822.9,4.99,000.00,028.6,026.1,000.0,037.3,029.7,026.9,0000.0,0007.14,0021.61,0005.20
2024-06-16 21:57:00,SystemResetWarning,0823.0,4.99,000.00,028.6,026.6,000.0,037.2,030.0,027.3,0000.0,0007.13,0021.73,0005.20
2024-06-16 21:58:00,SystemResetWarning,0822.8,5.01,000.00,028.7,027.0,000.0,037.2,030.2,026.8,0000.0,0007.16,0021.33,0005.19
2024-06-16 21:59:00,SystemResetWarning,0822.8,5.00,000.00,028.7,027.5,000.0,037.2,030.4,026.5,0000.0,0007.07,0020.31,0005.18
